Location: STAR School
(35.3054°N, 111.2976°W)
Time: 15:58:26
(UTC-07:00)

deb Explorer IX - Pass Details

Date: 30 May 2019
Orbit: 537 x 1115 km, 38.8° (Epoch: 14 June)

Event Time Altitude Azimuth Distance (km) Brightness Sun altitude
Exits shadow 03:11:49 25° 295° (WNW) 1,092 ? -20.3°
Maximum altitude 03:14:01 70° 14° (NNE) 568 ? -20.0°
Drops below altitude 10° 03:18:06 10° 99° (E) 1,818 ? -19.4°
Sets 03:20:25 0° 101° (ESE) 2,755 ? -19.1°
